Flag for Germany Weather past 2 weeks in Oberhausen, North Rhine-Westphalia, Germany

Now
57 °F

Clear.


Feels Like: 57 °F
Forecast: 51 / 77 °F
Wind: 3 mph from Southeast

Location: Duesseldorf

Current Time: Aug 29, 2015 at 12:18:56 AM

Latest Report: Aug 28, 2015 at 11:20 PM


Visibility: 10 mi

Pressure: 30.15 "Hg

Humidity: 88%

Dew point: 54 °F

Location of OberhausenLocation

Historic Weather in Oberhausen — Graph

°F

Oberhausen temperature yesterday

Maximum temperature yesterday: 70 °F (at 2:50 PM)
Minimum temperature yesterday: 55 °F (at 12:20 AM)
Average temperature yesterday: 62 °F

Past Weeks' High & Low Weather Summary

 TemperatureHumidityPressure
High82 °F (Aug 14, 4:50 PM)100% (Aug 16, 2:50 AM)30.24 "Hg (Aug 16, 2:50 AM)
Low50 °F (Aug 19, 4:50 AM)30% (Aug 22, 5:20 PM)29.50 "Hg (Aug 24, 4:50 PM)
Average66 °F73%29.93 "Hg
* Reported Aug 13 10:20 PM — Aug 28 10:20 PM, Oberhausen, Weather by CustomWeather, © 2015

Note: Actual official high and low records may vary slightly from our data, if they occured in-between our weather recording intervals... More about our weather records

Advertising

Oberhausen weather history for previous 24 hours

 ConditionsComfort  
Time TempWeatherWind HumidityBarometerVisibility
10:20 PM
Fri, Aug 28
59 °FClear.1 mph82%30.15 "Hg10 mi
9:50 PM61 °FClear.3 mph77%30.15 "Hg10 mi
9:20 PM61 °FPassing clouds.2 mph83%30.15 "HgN/A
8:50 PM64 °FPassing clouds.3 mph73%30.12 "HgN/A
8:20 PM66 °FPassing clouds.3 mph64%30.12 "HgN/A
7:50 PM68 °FPassing clouds.5 mph60%30.12 "HgN/A
7:20 PM68 °FPassing clouds.6 mph60%30.12 "HgN/A
6:50 PM68 °FPassing clouds.6 mph60%30.09 "HgN/A
6:20 PM70 °FPassing clouds.6 mph53%30.09 "HgN/A
5:50 PM70 °FPassing clouds.6 mph57%30.09 "HgN/A
5:20 PM70 °FPassing clouds.6 mph53%30.09 "HgN/A
4:50 PM70 °FPassing clouds.8 mph57%30.09 "HgN/A
4:20 PM68 °FScattered clouds.9 mph60%30.09 "HgN/A
3:50 PM68 °FScattered clouds.7 mph60%30.09 "HgN/A
3:20 PM70 °FPassing clouds.8 mph60%30.09 "HgN/A
2:50 PM70 °FPassing clouds.8 mph60%30.09 "HgN/A
2:20 PM68 °FPassing clouds.7 mph64%30.07 "HgN/A
1:50 PM68 °FPassing clouds.7 mph64%30.07 "HgN/A
1:20 PM66 °FScattered clouds.7 mph64%30.07 "HgN/A
12:50 PM66 °FScattered clouds.9 mph68%30.07 "HgN/A
12:20 PM64 °FScattered clouds.7 mph68%30.07 "HgN/A
11:50 AM64 °FScattered clouds.8 mph73%30.07 "HgN/A
11:20 AM63 °FPartly sunny.8 mph77%30.04 "HgN/A
10:50 AM63 °FScattered clouds.7 mph83%30.04 "HgN/A
10:20 AM61 °FPassing clouds.6 mph83%30.04 "HgN/A
9:50 AM61 °FPassing clouds.7 mph83%30.04 "HgN/A
9:20 AM59 °FPassing clouds.7 mph88%30.04 "HgN/A
8:50 AM59 °FPassing clouds.8 mph88%30.01 "HgN/A
8:20 AM57 °FPassing clouds.7 mph94%30.01 "HgN/A
7:50 AM57 °FPassing clouds.7 mph94%30.01 "HgN/A
7:20 AM57 °FPassing clouds.8 mph94%29.98 "HgN/A
6:50 AM57 °FPartly cloudy.8 mph94%29.98 "HgN/A
6:20 AM57 °FPartly cloudy.8 mph94%29.98 "HgN/A
5:50 AM57 °FPartly cloudy.7 mph94%29.98 "HgN/A
5:20 AM57 °FPassing clouds.6 mph94%29.95 "HgN/A
4:50 AM57 °FPartly cloudy.6 mph94%29.95 "HgN/A
4:20 AM57 °FPartly cloudy.5 mph94%29.95 "HgN/A
3:50 AM57 °FPassing clouds.5 mph94%29.95 "HgN/A
3:20 AM57 °FPartly cloudy.6 mph94%29.95 "HgN/A
2:50 AM57 °FPartly cloudy.5 mph94%29.95 "HgN/A
2:20 AM57 °FPartly cloudy.6 mph94%29.92 "HgN/A
1:50 AM57 °FPassing clouds.6 mph94%29.92 "HgN/A
1:20 AM57 °FPassing clouds.6 mph94%29.92 "HgN/A
12:50 AM57 °FPassing clouds.6 mph94%29.92 "HgN/A
12:20 AM55 °FLight rain. Partly cloudy.6 mph100%29.92 "HgN/A
Weather by CustomWeather, © 2015

See weather overviewHow to use our weather pages